Météo par heure à Juraszowa

Ce jour, 20 Juin, Dimanche

Heure Température Précipitation Vent Pression Humidité
00:00 +18°C° 0 mm 1 m/s 726 mmHg 92%
01:00 +15°C° 0 mm 0 m/s 726 mmHg 92%
02:00 +16°C° 0 mm 1 m/s 726 mmHg 92%
03:00 +16°C° 0 mm 1 m/s 725 mmHg 92%
04:00 +15°C° 0 mm 1 m/s 725 mmHg 92%
05:00 +19°C° 0 mm 1 m/s 725 mmHg 84%
06:00 +21°C° 0 mm 1 m/s 725 mmHg 75%
07:00 +23°C° 0 mm 1 m/s 725 mmHg 67%
08:00 +24°C° 0 mm 1 m/s 725 mmHg 60%
09:00 +26°C° 0 mm 1 m/s 726 mmHg 53%
10:00 +28°C° 0 mm 1 m/s 726 mmHg 46%
11:00 +29°C° 0 mm 2 m/s 725 mmHg 44%
12:00 +29°C° 0 mm 2 m/s 725 mmHg 43%
13:00 +30°C° 0 mm 2 m/s 725 mmHg 41%
14:00 +29°C° 0 mm 2 m/s 725 mmHg 44%
15:00 +29°C° 0 mm 3 m/s 724 mmHg 47%
16:00 +29°C° 0 mm 3 m/s 724 mmHg 50%
17:00 +27°C° 0 mm 3 m/s 724 mmHg 61%
18:00 +25°C° 0 mm 2 m/s 724 mmHg 72%
19:00 +23°C° 0 mm 1 m/s 724 mmHg 83%
20:00 +22°C° 0 mm 1 m/s 724 mmHg 86%
21:00 +21°C° 0 mm 1 m/s 723 mmHg 90%
22:00 +20°C° 0 mm 1 m/s 723 mmHg 93%
23:00 +19°C° 0 mm 1 m/s 723 mmHg 93%

Demain, 21 Juin, Lundi

Heure Température Précipitation Vent Pression Humidité
00:00 +19°C° 0 mm 1 m/s 723 mmHg 93%
01:00 +19°C° 0 mm 1 m/s 722 mmHg 93%
02:00 +18°C° 0 mm 1 m/s 722 mmHg 92%
03:00 +18°C° 0 mm 1 m/s 722 mmHg 92%
04:00 +18°C° 0 mm 1 m/s 722 mmHg 91%
05:00 +20°C° 0 mm 1 m/s 722 mmHg 84%
06:00 +22°C° 0 mm 1 m/s 722 mmHg 76%
07:00 +24°C° 0 mm 1 m/s 722 mmHg 68%
08:00 +26°C° 0 mm 1 m/s 722 mmHg 62%
09:00 +28°C° 0 mm 1 m/s 722 mmHg 55%
10:00 +30°C° 0 mm 1 m/s 722 mmHg 48%
11:00 +30°C° 0 mm 1 m/s 722 mmHg 47%
12:00 +31°C° 0 mm 1 m/s 722 mmHg 45%
13:00 +31°C° 0 mm 2 m/s 722 mmHg 43%
14:00 +30°C° 0.1 mm 2 m/s 722 mmHg 50%
15:00 +29°C° 0.1 mm 1 m/s 722 mmHg 57%
16:00 +27°C° 0.1 mm 1 m/s 722 mmHg 64%
17:00 +26°C° 0 mm 1 m/s 721 mmHg 69%
18:00 +25°C° 0 mm 1 m/s 721 mmHg 75%
19:00 +24°C° 0 mm 2 m/s 721 mmHg 80%
20:00 +24°C° 0 mm 2 m/s 721 mmHg 82%
21:00 +23°C° 0 mm 2 m/s 722 mmHg 85%
22:00 +21°C° 0 mm 2 m/s 722 mmHg 87%
23:00 +21°C° 0.2 mm 1 m/s 722 mmHg 88%

Après-demain, 22 Juin, Mardi

Heure Température Précipitation Vent Pression Humidité
00:00 +21°C° 0.2 mm 1 m/s 722 mmHg 89%
01:00 +20°C° 0.2 mm 1 m/s 722 mmHg 91%
02:00 +20°C° 0.3 mm 1 m/s 722 mmHg 92%
03:00 +19°C° 0.3 mm 1 m/s 722 mmHg 94%
04:00 +17°C° 0.3 mm 0 m/s 722 mmHg 96%
05:00 +18°C° 0 mm 0 m/s 723 mmHg 92%
06:00 +19°C° 0 mm 0 m/s 723 mmHg 89%
07:00 +21°C° 0 mm 0 m/s 723 mmHg 85%
08:00 +25°C° 0 mm 1 m/s 723 mmHg 77%
09:00 +26°C° 0 mm 1 m/s 724 mmHg 69%
10:00 +28°C° 0 mm 1 m/s 724 mmHg 61%
11:00 +28°C° 0.6 mm 1 m/s 724 mmHg 63%
12:00 +28°C° 0.6 mm 1 m/s 724 mmHg 64%
13:00 +28°C° 0.6 mm 1 m/s 724 mmHg 66%
14:00 +28°C° 0.9 mm 1 m/s 724 mmHg 68%
15:00 +28°C° 0.9 mm 1 m/s 724 mmHg 71%
16:00 +27°C° 0.9 mm 1 m/s 724 mmHg 74%
17:00 +26°C° 0.4 mm 1 m/s 724 mmHg 78%
18:00 +25°C° 0.4 mm 1 m/s 724 mmHg 82%
19:00 +22°C° 0.4 mm 0 m/s 724 mmHg 86%
20:00 +21°C° 0.2 mm 0 m/s 724 mmHg 87%
21:00 +23°C° 0.2 mm 1 m/s 724 mmHg 89%
22:00 +22°C° 0.2 mm 1 m/s 724 mmHg 90%
23:00 +21°C° 0 mm 1 m/s 724 mmHg 91%

23 Juin, Mercredi

Heure Température Précipitation Vent Pression Humidité
00:00 +21°C° 0 mm 1 m/s 724 mmHg 92%
01:00 +21°C° 0 mm 1 m/s 724 mmHg 93%
02:00 +20°C° 0 mm 1 m/s 724 mmHg 93%
03:00 +20°C° 0 mm 1 m/s 724 mmHg 93%
04:00 +20°C° 0 mm 1 m/s 724 mmHg 93%
05:00 +22°C° 0 mm 1 m/s 724 mmHg 88%
06:00 +23°C° 0 mm 1 m/s 725 mmHg 83%
07:00 +25°C° 0 mm 1 m/s 725 mmHg 78%
08:00 +27°C° 0 mm 1 m/s 725 mmHg 69%
09:00 +29°C° 0 mm 1 m/s 725 mmHg 59%
10:00 +32°C° 0 mm 1 m/s 725 mmHg 50%
11:00 +32°C° 0.1 mm 1 m/s 725 mmHg 49%
12:00 +32°C° 0.1 mm 2 m/s 725 mmHg 48%
13:00 +34°C° 0.1 mm 2 m/s 725 mmHg 47%
14:00 +31°C° 0.6 mm 2 m/s 726 mmHg 56%
15:00 +30°C° 0.6 mm 2 m/s 726 mmHg 64%
16:00 +28°C° 0.6 mm 2 m/s 726 mmHg 73%
17:00 +27°C° 0.9 mm 2 m/s 726 mmHg 78%
18:00 +26°C° 0.9 mm 2 m/s 726 mmHg 83%
19:00 +24°C° 0.9 mm 2 m/s 726 mmHg 88%
20:00 +23°C° 0.7 mm 1 m/s 727 mmHg 90%
21:00 +22°C° 0.7 mm 1 m/s 728 mmHg 92%
22:00 +21°C° 0.7 mm 1 m/s 728 mmHg 94%
23:00 +20°C° 0 mm 1 m/s 728 mmHg 95%

24 Juin, Jeudi

Heure Température Précipitation Vent Pression Humidité
00:00 +20°C° 0 mm 1 m/s 728 mmHg 95%
01:00 +20°C° 0 mm 1 m/s 728 mmHg 96%
02:00 +19°C° 0 mm 1 m/s 728 mmHg 96%
03:00 +19°C° 0 mm 1 m/s 728 mmHg 96%
04:00 +17°C° 0 mm 0 m/s 728 mmHg 96%
05:00 +20°C° 0 mm 1 m/s 728 mmHg 94%
06:00 +21°C° 0 mm 1 m/s 728 mmHg 92%
07:00 +22°C° 0 mm 1 m/s 728 mmHg 89%
08:00 +23°C° 0 mm 1 m/s 728 mmHg 83%
09:00 +25°C° 0 mm 1 m/s 728 mmHg 77%
10:00 +26°C° 0 mm 1 m/s 728 mmHg 71%
11:00 +27°C° 0.1 mm 2 m/s 728 mmHg 68%
12:00 +29°C° 0.1 mm 2 m/s 728 mmHg 64%
13:00 +30°C° 0.1 mm 2 m/s 728 mmHg 61%
14:00 +30°C° 0.2 mm 2 m/s 727 mmHg 63%
15:00 +30°C° 0.2 mm 3 m/s 727 mmHg 65%
16:00 +29°C° 0.2 mm 3 m/s 727 mmHg 68%
17:00 +28°C° 0.2 mm 3 m/s 726 mmHg 74%
18:00 +27°C° 0.2 mm 3 m/s 726 mmHg 80%
19:00 +26°C° 0.2 mm 3 m/s 725 mmHg 86%
20:00 +25°C° 0 mm 2 m/s 725 mmHg 87%
21:00 +24°C° 0 mm 2 m/s 725 mmHg 88%
22:00 +23°C° 0 mm 2 m/s 725 mmHg 89%
23:00 +21°C° 0.7 mm 2 m/s 725 mmHg 91%

25 Juin, Vendredi

Heure Température Précipitation Vent Pression Humidité
00:00 +21°C° 0.7 mm 2 m/s 725 mmHg 93%
01:00 +20°C° 0.7 mm 2 m/s 725 mmHg 95%
02:00 +20°C° 0.1 mm 1 m/s 725 mmHg 95%
03:00 +20°C° 0.1 mm 1 m/s 725 mmHg 96%
04:00 +19°C° 0.1 mm 1 m/s 724 mmHg 97%
05:00 +18°C° 0 mm 2 m/s 725 mmHg 96%
06:00 +18°C° 0 mm 2 m/s 726 mmHg 96%
07:00 +18°C° 0 mm 2 m/s 727 mmHg 96%
08:00 +19°C° 0 mm 2 m/s 727 mmHg 92%
09:00 +19°C° 0 mm 2 m/s 727 mmHg 88%
10:00 +20°C° 0 mm 3 m/s 728 mmHg 85%
11:00 +20°C° 0 mm 3 m/s 728 mmHg 81%
12:00 +21°C° 0 mm 3 m/s 728 mmHg 78%
13:00 +21°C° 0 mm 3 m/s 728 mmHg 75%
14:00 +21°C° 0 mm 3 m/s 728 mmHg 73%
15:00 +22°C° 0 mm 3 m/s 728 mmHg 72%
16:00 +22°C° 0 mm 3 m/s 728 mmHg 70%
17:00 +21°C° 0 mm 3 m/s 728 mmHg 75%
18:00 +20°C° 0 mm 2 m/s 728 mmHg 79%
19:00 +20°C° 0 mm 1 m/s 728 mmHg 84%
20:00 +19°C° 0 mm 1 m/s 728 mmHg 86%
21:00 +18°C° 0 mm 1 m/s 728 mmHg 89%
22:00 +16°C° 0 mm 1 m/s 728 mmHg 91%
23:00 +16°C° 0 mm 1 m/s 728 mmHg 92%
Voir plus

Nous avons besoin de votre consentement

Meteoprog et ses fournisseurs de services peuvent stocker et accéder à des données personnelles telles que des cookies, des identifiants d'appareils ou d'autres technologies similaires sur votre appareil et traiter ces données pour personnaliser le contenu et les publicités, ainsi que pour fournir des fonctionnalités de médias sociaux et analyser le trafic.

  • Stocker et/ou accéder à des informations sur votre appareil

    Des cookies, des identifiants d'appareils ou d'autres informations peuvent être stockés ou accessibles sur votre appareil aux fins indiquées ci-dessus.

  • Annonces et contenus personnalisés, mesure des annonces et des contenus, connaissance de l'audience et développement de produits

    Les annonces et le contenu peuvent être personnalisés en fonction d'un profil. D'autres données peuvent être ajoutées pour mieux personnaliser les annonces et le contenu. Les performances des publicités et du contenu peuvent être mesurées. Il est possible d'obtenir des informations sur le public qui a vu les publicités et le contenu. Ces données peuvent être utilisées pour développer ou améliorer l'expérience de l'utilisateur, les systèmes et les logiciels.

En cliquant sur "J'accepte", vous autorisez l'utilisation de cookies, des identifiants d'appareils, des balises web ou d'autres technologies similaires. Vos paramètres peuvent être modifiés dans le navigateur de votre appareil.

Dans certains cas, des intérêts légitimes peuvent être invoqués plutôt qu'un consentement. Vous pouvez en savoir plus à ce sujet dans notre Politique de confidentialité et de cookies.